Regional Weather Roundup
Issued by NWS Albany, NY

Home | Current Version | Previous Version | Text Only | Print | Product List | Glossary On
Versions: 1 2 3 4 5 6 7 8 9 10 11 12 13 14 15 16 17 18 19 20 21 22 23 24 25 26 27 28 29 30 31 32 33 34 35 36 37 38 39 40 41 42 43 44 45 46 47 48 49 50
000
ASUS41 KALY 291010
RWRALY

NEW YORK STATE HOURLY WEATHER ROUNDUP
NATIONAL WEATHER SERVICE ALBANY NY
600 AM EDT WED JUL 29 2015

NOTE: "FAIR" INDICATES FEW OR NO CLOUDS BELOW 12,000 FEET WITH NO
SIGNIFICANT WEATHER AND/OR NO OBSTRUCTIONS TO VISIBILITY.

NYZ032-033-038>043-046>054-057>066-NYZ062>081-291100-
EAST


CITY           SKY/WX    TMP DP  RH WIND       PRES   REMARKS
ALBANY         MOCLDY    68  63  84 CALM      29.99R
GLENS FALLS    CLEAR     65  63  93 CALM      29.99R
POUGHKEEPSIE   CLEAR     67  64  90 NE3       29.97R
MONTGOMERY     CLEAR     65  64  97 CALM      29.99R FOG
WHITE PLAINS   CLEAR     72  68  87 NW7       29.98R
ISLIP          PTCLDY    72  69  90 SW6       29.95R
NEW YORK CITY  PTCLDY    80  65  59 CALM      29.96R
CENTRAL PARK   CLEAR     79  66  64 VRB3      29.99R
$$

NYZ005>009-017-018-044>046-055-056-291100-
CENTRAL


CITY           SKY/WX    TMP DP  RH WIND       PRES   REMARKS
FULTON         CLEAR     63  61  93 CALM      29.99F
SYRACUSE       MOCLDY    64  60  87 E3        29.99S
ROME           CLEAR     60  59  96 CALM      30.03R
ELMIRA         FOG       64  64 100 CALM      30.03S VSB 3/4
BINGHAMTON     CLEAR     68  64  87 W5        30.06R
MONTICELLO     CLEAR     61  61 100 CALM      30.06S
$$

NYZ026>034-041>043-291100-
NORTH


CITY           SKY/WX    TMP DP  RH WIND       PRES   REMARKS
WATERTOWN      CLEAR     67  58  72 S5        29.98S
FORT DRUM      NOT AVBL
MASSENA        MOCLDY    68  59  73 SW7       29.96R
SARANAC LAKE   PTCLDY    55  54  96 CALM      30.03S
PLATTSBURGH    CLEAR     66  65  96 CALM      29.95R
$$

NYZ001>004-010>016-019>021-291100-
WEST


CITY           SKY/WX    TMP DP  RH WIND       PRES   REMARKS
NIAGARA FALLS  PTCLDY    65  62  90 CALM      29.97S
BUFFALO        MOCLDY    68  60  75 S6        29.98F
DUNKIRK        PTCLDY    64  58  80 S3        29.99S
JAMESTOWN      CLEAR     63  57  82 S6        30.04F
WELLSVILLE     CLEAR     63  60  90 CALM      30.09F
ROCHESTER      MOCLDY    69  65  86 S7        29.99F
PENN YAN       CLEAR     68  66  93 SW3       30.01F
$$

             KEY
       WCI = WIND CHILL INDEX
       VSB = VISIBILITY
       HX  = HEAT INDEX
$$



USA.gov is the U.S. government's official web portal to all federal, state and local government web resources and services.